Regional Weather Roundup
Issued by NWS

Home | Current Version | Previous Version | Text Only | Print | Product List | Glossary On
Versions: 1 2 3 4 5 6 7 8 9 10 11 12 13 14 15 16 17 18 19 20 21 22 23 24 25 26 27 28 29 30 31 32 33 34 35 36 37 38 39 40 41 42 43 44 45 46 47 48 49 50
000
ASUS43 KDTX 181610
RWRMI
MICHIGAN HOURLY REGIONAL WEATHER ROUNDUP
NATIONAL WEATHER SERVICE DETROIT/PONTIAC MI
1200 PM EDT SAT APR 18 2015

NOTE: "FAIR" INDICATES FEW OR NO CLOUDS BELOW 12,000 FEET WITH NO
SIGNIFICANT WEATHER AND/OR OBSTRUCTION TO VISIBILITY.

MIZ047>049-052>055-059>063-066>070-074>076-081>083-181700-
SOUTHEAST LOWER MICHIGAN

CITY           SKY/WX    TMP DP  RH WIND       PRES   REMARKS
ADRIAN         SUNNY     72  46  39 NE13      30.07R
ALMA           SUNNY     67  29  24 NE15G21   30.12R
ANN ARBOR      SUNNY     73  39  29 NE14G22   30.06S
BAD AXE        SUNNY     52  32  46 NE18G24   30.16R
CARO           SUNNY     58  35  42 N13G24    30.14R
DETROIT CITY   SUNNY     70  40  33 NE10G21   30.07S
DETROIT        MOSUNNY   74  41  30 N15       30.07R
FLINT          SUNNY     67  36  31 NE20G26   30.11R
GROSSE ILE     MOSUNNY   72  41  33 N13       30.05R
HILLSDALE      SUNNY     71  47  41 NE10      30.07S
HOWELL         SUNNY     68  33  26 NE12G17   30.09S

CITY           SKY/WX    TMP DP  RH WIND       PRES   REMARKS
JACKSON        MOSUNNY   71  38  29 NE9       30.07S
LAMBERTVILLE   SUNNY     73  45  35 N9G17     30.06R
LANSING        SUNNY     69  35  28 NE16G22   30.10R
LAPEER         FAIR      63  35  35 N12G20    30.12R
MASON          SUNNY     67  36  32 NE15      30.09S
MONROE         SUNNY     73  46  38 NE9       30.04S
MT. CLEMENS    PTSUNNY   68  41  37 N17G23    30.07R
PONTIAC        MOSUNNY   70  35  27 N14       30.08R
PORT HOPE        N/A     46  35  65 N8        30.16R
PORT HURON     SUNNY     57  32  38 N16G25    30.14R
TRI CITIES     SUNNY     61  37  41 E17       30.15R
TROY           SUNNY     71  37  29 N8G16     30.09S
SAGINAW HB     SUNNY     61  32  33 NE22G28   30.15R
$$
MIZ043>046-050>051-056>058-064>065-071>073-077>080-181700-
SOUTHWEST LOWER MICHIGAN

CITY           SKY/WX    TMP DP  RH WIND       PRES   REMARKS
BATTLE CREEK   SUNNY     71  39  31 NE13      30.08R
BENTON HARBOR  SUNNY     70  47  43 NE9       30.05S
BIG RAPIDS     SUNNY     62  27  26 N7        30.12S
COLDWATER      SUNNY     70  48  45 NE10      30.07R
FREMONT        FAIR      67  21  17 N8        30.10R
HOLLAND        SUNNY     71  37  28 NE10G20   30.08R
GRAND RAPIDS   PTSUNNY   71  33  24 NE14      30.08S
IONIA          FAIR      67  35  29 E15       30.09S
KALAMAZOO      SUNNY     72  42  34 NE12      30.07S
LUDINGTON      SUNNY     62  32  32 NE12      30.13F
MARSHALL       PTSUNNY   70  42  36 NE8       30.07S
MOUNT PLEASANT SUNNY     64  32  30 N13       30.12S
MUSKEGON       PTSUNNY   70  29  21 NE14G23   30.09S
SOUTH HAVEN    SUNNY     72  36  26 NE8       30.06S
$$
MIZ016>042-181700-
NORTHERN LOWER MICHIGAN

CITY           SKY/WX    TMP DP  RH WIND       PRES   REMARKS
ALPENA         SUNNY     53  33  46 N12       30.19R
BEAVER ISLAND  SUNNY     50  32  50 NE13G18   30.20F
BELLAIRE       SUNNY     58  26  28 NE14      30.17F
CADILLAC       SUNNY     60  30  32 N13       30.13S
CHARLEVOIX     SUNNY     46  34  63 N10       30.22S
FRANKFORT      SUNNY     53  32  44 N8        30.18R
GAYLORD        SUNNY     54  24  31 NE16G22   30.16S
GRAYLING       SUNNY     58  24  27 N8G21     30.16S
HARBOR SPRINGS SUNNY     55  30  38 N9        30.18F
HOUGHTON LAKE  SUNNY     60  27  28 NE10      30.15R
MANISTEE       SUNNY     57  28  33 NE18G25   30.16S
OSCODA         SUNNY     56  31  38 NE21      30.17R
PELLSTON       SUNNY     53  32  44 N9        30.20S
ROGERS CITY    SUNNY     49  35  59 N9        30.22R
TRAVERSE CITY  MOSUNNY   49  35  58 NE5       30.18R
$$
MIZ007>008-015-181700-
EASTERN UPPER MICHIGAN

CITY           SKY/WX    TMP DP  RH WIND       PRES   REMARKS
KINROSS        SUNNY     48  32  53 N5        30.19S
MACKINAC ISLAN SUNNY     51  32  48 N8        30.20S
NEWBERRY       SUNNY     47  34  60 N9        30.21R
S. S. MARIE    SUNNY     53  29  39 N8        30.18S
MUNISING         N/A     39  32  76 N13       30.24S WCI  31
$$
MIZ004>006-011>014-085-181700-
CENTRAL UPPER MICHIGAN

CITY           SKY/WX    TMP DP  RH WIND       PRES   REMARKS
MANISTIQUE     SUNNY     52  34  50 N10G16    30.20F
ESCANABA       SUNNY     52  32  46 NE13G18   30.22S
MENOMINEE      SUNNY     48  34  57 E20       30.22R
SAWYER-GWINN   MOSUNNY   43  32  65 NE13G20     N/A
$$
MIZ001>003-009>011-084-181700-
WESTERN UPPER MICHIGAN

CITY           SKY/WX    TMP DP  RH WIND       PRES   REMARKS
IRON MOUNTAIN  SUNNY     49  30  48 E8        30.22S
HOUGHTON       MOSUNNY   45  32  60 SE5       30.26R
COPPER HARBOR    N/A     40  31  70 E3        30.28R
IRONWOOD       SUNNY     48  30  49 E12G18    30.19S
$$

ABBREVIATIONS USED IN REMARKS
   TC - TEMPERATURE IN CELSIUS
  WCI - WIND CHILL INDEX
   HX - HEAT INDEX
  VSB - VISIBILITY




USA.gov is the U.S. government's official web portal to all federal, state and local government web resources and services.